CW7410 Weather Reports


Display with metric or nautical units.
time (UTC)temp
F
wind
direction
speed
MPH
gust
MPH
rain 1hr
in
rain 24hr
in
rain mn
in
humidity
%
barometer
mb
20260902081556 64 127 8.0 13.0 0.00 0.00 0.00 64 1012.9
20260902080058 64 137 6.0 11.0 0.00 0.00 0.00 63 1012.9
20260902074555 65 129 7.0 13.0 0.00 0.00 0.00 63 1012.8
20260902073057 65 106 6.0 12.0 0.00 0.00 0.00 63 1012.7
20260902071558 65 135 6.0 12.0 0.00 0.00 0.00 62 1012.6
20260902070103 66 140 6.0 15.0 0.00 0.00 0.00 61 1012.5
20260902064604 67 155 10.0 17.0 0.00 0.00 0.00 60 1012.5
20260902063104 67 132 10.0 16.0 0.00 0.00 0.00 59 1012.4
20260902061620 67 140 8.0 14.0 0.00 0.00 0.00 59 1012.5
20260902060106 67 159 10.0 15.0 0.00 0.00 0.00 59 1012.5
20260902054559 68 123 9.0 16.0 0.00 0.00 0.00 59 1012.7
20260902053059 67 118 7.0 15.0 0.00 0.00 0.00 59 1012.7
20260902051615 67 101 8.0 13.0 0.00 0.00 0.00 59 1012.7
20260902050058 67 161 7.0 13.0 0.00 0.00 0.00 58 1012.9
20260902044626 68 142 8.0 13.0 0.00 0.00 0.00 58 1012.8
20260902043058 68 143 8.0 12.0 0.00 0.00 0.00 57 1012.9
20260902041605 69 146 7.0 11.0 0.00 0.00 0.00 56 1012.8
20260902040104 69 118 7.0 15.0 0.00 0.00 0.00 56 1012.7
20260902034602 69 121 8.0 12.0 0.00 0.00 0.00 56 1012.6
20260902033059 70 141 7.0 13.0 0.00 0.00 0.00 54 1012.6
20260902031601 70 120 7.0 13.0 0.00 0.00 0.00 54 1012.3
20260902024601 71 121 5.0 10.0 0.00 0.00 0.00 54 1012.0
20260902023057 72 142 5.0 10.0 0.00 0.00 0.00 53 1011.9
20260902021559 73 128 5.0 10.0 0.00 0.00 0.00 53 1012.0
20260902014600 76 146 2.0 5.0 0.00 0.01 0.00 52 1012.2
20260902013104 77 146 3.0 9.0 0.00 0.01 0.00 49 1012.2
20260902011558 77 189 4.0 12.0 0.00 0.01 0.00 48 1012.2
20260902010059 78 149 6.0 14.0 0.00 0.01 0.00 45 1012.3
20260902004602 79 141 9.0 20.0 0.00 0.06 0.00 44 1012.4
20260902003101 79 118 7.0 17.0 0.00 0.06 0.00 44 1012.4
20260902001603 80 135 10.0 17.0 0.00 0.06 0.00 44 1012.6
20260902000058 80 179 10.0 21.0 0.00 0.06 0.00 43 1012.7
20260901234557 80 154 11.0 22.0 0.00 0.07 0.00 42 1012.8
20260901233057 81 159 8.0 23.0 0.00 0.07 0.00 44 1013.0
20260901231612 80 134 12.0 23.0 0.00 0.07 0.00 43 1013.3
20260901230108 79 137 11.0 20.0 0.00 0.07 0.00 46 1013.3
20260901224556 80 135 11.0 22.0 0.00 0.07 0.00 44 1013.5
20260901223058 81 148 10.0 24.0 0.00 0.07 0.00 45 1013.5
20260901221611 80 142 7.0 22.0 0.00 0.07 0.00 46 1014.0
20260901214605 79 134 7.0 16.0 0.00 0.07 0.00 49 1014.4
20260901213102 80 178 10.0 20.0 0.00 0.07 0.00 44 1014.7
20260901211601 80 167 11.0 19.0 0.00 0.07 0.00 43 1014.7
20260901210106 81 177 12.0 20.0 0.00 0.07 0.00 46 1015.0
20260901204555 81 107 11.0 21.0 0.00 0.07 0.00 49 1015.5
20260901203059 79 144 9.0 19.0 0.00 0.07 0.00 50 1015.7
20260901201600 80 173 11.0 21.0 0.00 0.07 0.00 48 1015.9
20260901200059 79 112 10.0 18.0 0.00 0.07 0.00 49 1016.0
20260901194602 78 144 9.0 18.0 0.00 0.07 0.00 52 1016.3
20260901193105 77 190 9.0 18.0 0.00 0.07 0.00 52 1016.5
20260901191601 76 150 10.0 17.0 0.00 0.07 0.00 54 1016.6
20260901190056 76 97 7.0 14.0 0.00 0.07 0.00 52 1016.7
20260901184600 76 184 10.0 19.0 0.00 0.07 0.00 52 1017.0
20260901183116 75 151 7.0 13.0 0.00 0.07 0.00 56 1017.0
20260901181600 75 182 5.0 13.0 0.00 0.07 0.00 55 1017.4
20260901180055 75 175 7.0 15.0 0.00 0.07 0.00 56 1017.5
20260901174603 76 168 9.0 17.0 0.00 0.07 0.00 53 1017.5
20260901173146 76 192 6.0 13.0 0.00 0.07 0.00 55 1017.5
20260901171603 76 192 6.0 15.0 0.00 0.07 0.00 57 1017.6
20260901164603 73 97 3.0 11.0 0.00 0.07 0.00 62 1017.6
20260901163116 72 113 6.0 11.0 0.00 0.07 0.00 64 1017.6
20260901161607 70 98 3.0 10.0 0.00 0.07 0.00 65 1017.6
20260901160105 70 151 4.0 12.0 0.00 0.07 0.00 66 1017.6
20260901154605 69 115 7.0 12.0 0.00 0.07 0.00 66 1017.8
20260901153058 68 174 5.0 13.0 0.00 0.07 0.00 68 1017.8
20260901151601 67 142 6.0 11.0 0.00 0.07 0.00 70 1017.8
20260901150107 65 153 6.0 11.0 0.00 0.07 0.00 75 1017.8
20260901144559 64 147 2.0 8.0 0.00 0.07 0.00 79 1017.8
20260901143107 62 130 3.0 8.0 0.00 0.07 0.00 82 1017.7
20260901141614 59 167 3.0 6.0 0.00 0.07 0.00 83 1017.6
20260901134555 56 101 4.0 8.0 0.00 0.07 0.00 83 1017.5
20260901133058 55 97 5.0 9.0 0.00 0.07 0.00 82 1017.5
20260901131604 54 118 4.0 7.0 0.00 0.07 0.00 81 1017.4
20260901124602 55 111 3.0 6.0 0.00 0.07 0.00 81 1017.2
20260901123056 55 122 1.0 4.0 0.00 0.07 0.00 81 1017.3
20260901121605 55 119 1.0 7.0 0.00 0.07 0.00 80 1017.4
20260901120110 55 90 1.0 4.0 0.00 0.07 0.00 80 1017.3
20260901114604 56 73 1.0 5.0 0.00 0.07 0.00 80 1017.1
20260901113056 56 91 3.0 7.0 0.00 0.07 0.00 80 1017.1
20260901111607 56 103 3.0 4.0 0.00 0.07 0.00 80 1017.1
20260901110103 57 98 4.0 6.0 0.00 0.07 0.00 80 1017.2
20260901104602 57 105 3.0 4.0 0.00 0.07 0.00 80 1017.4
20260901103100 57 126 1.0 7.0 0.00 0.07 0.00 80 1017.5
20260901101607 57 132 3.0 10.0 0.00 0.07 0.00 80 1017.5
20260901100107 57 135 4.0 8.0 0.00 0.07 0.00 80 1017.4
20260901094601 57 70 1.0 5.0 0.00 0.07 0.00 79 1017.4
20260901093100 58 0 1.0 8.0 0.00 0.07 0.00 79 1017.4
20260901091606 58 120 3.0 8.0 0.00 0.07 0.00 79 1017.3
20260901084621 59 0 4.0 9.0 0.00 0.07 0.00 79 1017.3
20260901083054 60 120 3.0 9.0 0.00 0.07 0.00 79 1017.3